Terminal Aerodrome Forecast
Issued by NWS

Home | Current Version | Previous Version | Text Only | Print | Product List | Glossary On
Versions: 1 2 3 4 5 6 7 8 9 10 11 12 13 14 15 16 17 18 19 20
000
FTUS42 KFFC 252007 AAA
TAFPDK
TAF AMD
KPDK 252007Z 2520/2618 26007KT P6SM SCT060 SCT120
      TEMPO 2520/2523 VRB12KT 4SM -TSRA BR BKN035CB
     FM252300 27006KT P6SM SCT070
     FM260200 24003KT P6SM SCT100
     FM261600 24006KT P6SM SCT035=

USA.gov is the U.S. government's official web portal to all federal, state and local government web resources and services.